sat.trackr.live / text

‹ back to catalog

STARLINK-32346

NORAD 61849 · 2024-202E

PAYLOAD ACTIVE UNKNOWN

§ Identity

Operator
Country
US
Launch date
2024-11-07
Launch site
AFETR
Launch vehicle
Mass (kg)
RCS (m²)

Purposes: comms

External: N2YO · Heavens-Above · Gunter

§ Orbital elements

Epoch: 2026-05-25T01:12:05.533056Z

Period
94.27 min
Inclination
43.0005°
Eccentricity
0.0001021
Mean motion
15.27575956 rev/d
Perigee alt
482.4 km
Apogee alt
483.8 km
Semi-major
6,861.2 km
B*
-2.5537e-6
RAAN
155.6995°
Arg perigee
270.4445°
Mean anomaly
89.6289°
Rev number
8,713

§ Raw data

STARLINK-323461 61849U 24202E   26145.05006404 -.00000332  00000+0 -25537-5 0  99912 61849  43.0005 155.6995 0001021 270.4445  89.6289 15.27575956 87135

JSON: /api/v1/satellites/61849 · /tle

For live sub-satellite position, see the globe view (requires WebGL).

§ Visibility from observer

Set your observer location to see the next 7 days of passes ≥ 10°. The values pass through the URL so the page stays shareable.

No JS? Fill the form by hand. The geolocation button needs JavaScript.